Location: Prairie View Elementary School
(39.8322°N, 99.5698°W)
Time: 01:25:05
(UTC+00:00)

Cosmos 1346 Rocket - Pass Details

Date: 08 December 2019
Orbit: 524 x 555 km, 81.2° (Epoch: 28 January)

Event Time Altitude Azimuth Distance (km) Brightness Sun altitude
Rises 00:02:11 0° 343° (NNW) 2,698 6.3 -9.3°
Reaches altitude 10° 00:04:24 10° 337° (NNW) 1,807 5.5 -9.7°
Maximum altitude 00:08:12 44° 265° (W) 758 4.1 -10.4°
Drops below altitude 10° 00:12:00 10° 193° (SSW) 1,810 5.9 -11.0°
Sets 00:14:13 0° 187° (S) 2,703 6.7 -11.4°
